EW3608 Weather Reports


Display with metric or nautical units.
time (UTC)temp
F
wind
direction
speed
MPH
gust
MPH
rain 1hr
in
rain 24hr
in
rain mn
in
humidity
%
barometer
mb
20260903192516 88 140 3.0 8.0 0.00 0.00 0.00 22 1015.7
20260903192017 89 15 2.0 6.0 0.00 0.00 0.00 22 1015.8
20260903191533 89 111 2.0 7.0 0.00 0.00 0.00 21 1015.9
20260903191016 89 109 1.0 7.0 0.00 0.00 0.00 21 1015.8
20260903190507 89 102 2.0 7.0 0.00 0.00 0.00 22 1015.9
20260903190012 89 109 2.0 5.0 0.00 0.00 0.00 22 1015.9
20260903185511 89 185 2.0 7.0 0.00 0.00 0.00 22 1016.1
20260903185015 88 59 1.0 7.0 0.00 0.00 0.00 21 1016.1
20260903184528 88 58 2.0 9.0 0.00 0.00 0.00 22 1016.1
20260903184004 88 148 1.0 9.0 0.00 0.00 0.00 22 1016.2
20260903183506 88 119 2.0 5.0 0.00 0.00 0.00 23 1016.2
20260903183008 88 15 1.0 6.0 0.00 0.00 0.00 22 1016.3
20260903182508 87 141 3.0 8.0 0.00 0.00 0.00 22 1016.3
20260903182008 87 46 1.0 10.0 0.00 0.00 0.00 23 1016.4
20260903181522 87 134 2.0 10.0 0.00 0.00 0.00 24 1016.5
20260903181012 87 114 1.0 6.0 0.00 0.00 0.00 22 1016.6
20260903180514 86 132 2.0 6.0 0.00 0.00 0.00 24 1016.7
20260903180003 86 58 2.0 8.0 0.00 0.00 0.00 24 1016.8
20260903175505 86 137 3.0 8.0 0.00 0.00 0.00 24 1016.8
20260903175007 86 30 1.0 7.0 0.00 0.00 0.00 23 1016.9
20260903174517 86 111 2.0 6.0 0.00 0.00 0.00 24 1017.0
20260903174014 86 138 2.0 5.0 0.00 0.00 0.00 24 1017.1
20260903173531 86 205 1.0 8.0 0.00 0.00 0.00 26 1017.1
20260903173028 86 159 1.0 9.0 0.00 0.00 0.00 24 1017.0
20260903172518 86 80 1.0 9.0 0.00 0.00 0.00 25 1017.1
20260903172003 86 219 1.0 6.0 0.00 0.00 0.00 26 1017.1
20260903171507 86 51 2.0 6.0 0.00 0.00 0.00 24 1017.1
20260903171007 86 242 1.0 6.0 0.00 0.00 0.00 24 1017.0
20260903170510 86 190 1.0 7.0 0.00 0.00 0.00 24 1017.0
20260903170029 86 27 2.0 7.0 0.00 0.00 0.00 24 1017.1
20260903165511 86 211 1.0 6.0 0.00 0.00 0.00 23 1016.9
20260903165015 86 101 2.0 6.0 0.00 0.00 0.00 24 1017.0
20260903164529 86 70 1.0 6.0 0.00 0.00 0.00 25 1016.9
20260903164004 86 104 1.0 6.0 0.00 0.00 0.00 24 1016.9
20260903163508 86 144 1.0 7.0 0.00 0.00 0.00 24 1017.0
20260903163012 86 171 2.0 7.0 0.00 0.00 0.00 24 1017.0
20260903162513 85 117 1.0 6.0 0.00 0.00 0.00 25 1016.9
20260903162012 85 91 2.0 5.0 0.00 0.00 0.00 24 1017.0
20260903161526 84 94 2.0 5.0 0.00 0.00 0.00 25 1016.8
20260903161019 84 37 1.0 3.0 0.00 0.00 0.00 26 1016.8
20260903160518 84 134 1.0 4.0 0.00 0.00 0.00 26 1016.9
20260903160008 83 157 1.0 7.0 0.00 0.00 0.00 27 1016.8
20260903155507 82 253 0.0 7.0 0.00 0.00 0.00 27 1016.8
20260903155006 82 57 2.0 6.0 0.00 0.00 0.00 27 1017.0
20260903154515 82 267 1.0 3.0 0.00 0.00 0.00 27 1016.9
20260903154013 81 352 1.0 3.0 0.00 0.00 0.00 28 1017.0
20260903153513 81 242 1.0 3.0 0.00 0.00 0.00 28 1017.1
20260903153031 81 339 1.0 5.0 0.00 0.00 0.00 29 1017.1
20260903152515 81 352 2.0 5.0 0.00 0.00 0.00 28 1017.2
20260903152005 80 351 0.0 3.0 0.00 0.00 0.00 29 1017.2
20260903151511 80 277 1.0 4.0 0.00 0.00 0.00 31 1017.2
20260903151011 79 250 1.0 7.0 0.00 0.00 0.00 31 1017.3
20260903150511 79 299 2.0 8.0 0.00 0.00 0.00 31 1017.3
20260903150039 78 226 1.0 10.0 0.00 0.00 0.00 31 1017.4
20260903145515 78 284 2.0 11.0 0.00 0.00 0.00 32 1017.4
20260903145015 77 268 2.0 12.0 0.00 0.00 0.00 31 1017.5
20260903144532 76 244 5.0 11.0 0.00 0.00 0.00 32 1017.4
20260903144004 76 286 4.0 11.0 0.00 0.00 0.00 34 1017.4
20260903143508 74 221 2.0 11.0 0.00 0.00 0.00 35 1017.4
20260903143026 72 248 5.0 11.0 0.00 0.00 0.00 37 1017.4
20260903142510 69 233 3.0 10.0 0.00 0.00 0.00 54 1017.4
20260903142011 66 199 2.0 7.0 0.00 0.00 0.00 54 1017.4
20260903141530 65 222 1.0 2.0 0.00 0.00 0.00 55 1017.4
20260903141015 64 200 0.0 2.0 0.00 0.00 0.00 57 1017.4
20260903140518 63 300 1.0 4.0 0.00 0.00 0.00 60 1017.5
20260903140008 62 217 0.0 4.0 0.00 0.00 0.00 61 1017.5
20260903135511 61 40 0.0 2.0 0.00 0.00 0.00 61 1017.4
20260903135011 60 342 0.0 2.0 0.00 0.00 0.00 63 1017.4
20260903134522 59 229 0.0 2.0 0.00 0.00 0.00 63 1017.4
20260903134017 59 170 0.0 2.0 0.00 0.00 0.00 64 1017.2
20260903133517 58 223 1.0 2.0 0.00 0.00 0.00 68 1017.3
20260903133034 57 162 0.0 2.0 0.00 0.00 0.00 67 1017.2
20260903132519 56 155 0.0 2.0 0.00 0.00 0.00 69 1017.1
20260903132004 55 178 1.0 2.0 0.00 0.00 0.00 72 1017.2
20260903131511 55 186 0.0 2.0 0.00 0.00 0.00 72 1017.1
20260903131013 55 185 0.0 2.0 0.00 0.00 0.00 72 1017.2
20260903130512 55 185 0.0 2.0 0.00 0.00 0.00 72 1017.1
20260903130027 54 186 0.0 2.0 0.00 0.00 0.00 73 1017.1
20260903125516 54 186 0.0 2.0 0.00 0.00 0.00 72 1016.8
20260903125016 54 186 0.0 2.0 0.00 0.00 0.00 72 1016.8
20260903124508 54 186 0.0 2.0 0.00 0.00 0.00 71 1016.7
20260903124002 54 193 1.0 2.0 0.00 0.00 0.00 72 1016.7
20260903123502 54 200 0.0 2.0 0.00 0.00 0.00 72 1016.7
20260903123002 55 240 0.0 2.0 0.00 0.00 0.00 71 1016.6
20260903122502 55 192 0.0 2.0 0.00 0.00 0.00 71 1016.6
20260903122003 55 192 0.0 2.0 0.00 0.00 0.00 71 1016.5
20260903121504 55 192 0.0 2.0 0.00 0.00 0.00 70 1016.6
20260903121004 55 192 0.0 2.0 0.00 0.00 0.00 71 1016.6
20260903120502 55 208 0.0 2.0 0.00 0.00 0.00 71 1016.5
20260903120004 55 225 0.0 2.0 0.00 0.00 0.00 71 1016.5
20260903115501 55 191 0.0 2.0 0.00 0.00 0.00 71 1016.5
20260903115002 55 191 1.0 2.0 0.00 0.00 0.00 70 1016.5
20260903114503 55 195 1.0 2.0 0.00 0.00 0.00 71 1016.5
20260903114002 55 194 0.0 2.0 0.00 0.00 0.00 70 1016.5
20260903113504 55 194 0.0 2.0 0.00 0.00 0.00 70 1016.5
20260903113003 56 194 0.0 2.0 0.00 0.00 0.00 70 1016.4
20260903112503 56 194 0.0 2.0 0.00 0.00 0.00 70 1016.4
20260903112003 56 194 0.0 2.0 0.00 0.00 0.00 69 1016.4
20260903111503 56 180 1.0 2.0 0.00 0.00 0.00 69 1016.4
20260903111002 56 202 0.0 2.0 0.00 0.00 0.00 67 1016.4
20260903110503 57 202 0.0 2.0 0.00 0.00 0.00 68 1016.4
20260903110003 57 202 0.0 2.0 0.00 0.00 0.00 66 1016.4
20260903105503 57 202 0.0 2.0 0.00 0.00 0.00 67 1016.5
20260903105004 57 202 0.0 2.0 0.00 0.00 0.00 66 1016.6
20260903104503 57 198 0.0 2.0 0.00 0.00 0.00 68 1016.5
20260903104004 57 180 0.0 2.0 0.00 0.00 0.00 68 1016.5
20260903103503 57 180 1.0 3.0 0.00 0.00 0.00 68 1016.5
20260903103004 57 216 1.0 3.0 0.00 0.00 0.00 65 1016.4
20260903102503 56 207 0.0 2.0 0.00 0.00 0.00 69 1016.4
20260903102002 57 191 0.0 2.0 0.00 0.00 0.00 69 1016.5
20260903101505 57 197 0.0 2.0 0.00 0.00 0.00 68 1016.6
20260903101002 57 197 0.0 2.0 0.00 0.00 0.00 68 1016.7
20260903100503 57 197 0.0 2.0 0.00 0.00 0.00 68 1016.6
20260903100004 57 209 0.0 2.0 0.00 0.00 0.00 68 1016.5
20260903095502 57 209 0.0 2.0 0.00 0.00 0.00 68 1016.5
20260903095004 57 189 0.0 2.0 0.00 0.00 0.00 67 1016.6
20260903094504 58 191 0.0 2.0 0.00 0.00 0.00 68 1016.7
20260903094004 58 191 0.0 2.0 0.00 0.00 0.00 68 1016.8
20260903093503 58 192 0.0 2.0 0.00 0.00 0.00 67 1016.8
20260903090003 60 196 0.0 2.0 0.00 0.00 0.00 64 1016.6
20260903085503 60 196 0.0 2.0 0.00 0.00 0.00 63 1016.6
20260903085002 60 196 0.0 2.0 0.00 0.00 0.00 62 1016.5
20260903084509 60 211 0.0 2.0 0.00 0.00 0.00 62 1016.4
20260903084003 60 212 0.0 2.0 0.00 0.00 0.00 63 1016.5
20260903083505 60 212 0.0 2.0 0.00 0.00 0.00 63 1016.5
20260903083003 61 212 0.0 2.0 0.00 0.00 0.00 63 1016.5
20260903082503 61 212 0.0 0.0 0.00 0.00 0.00 62 1016.5
20260903082003 61 212 0.0 2.0 0.00 0.00 0.00 61 1016.5
20260903081503 61 212 0.0 2.0 0.00 0.00 0.00 61 1016.5
20260903081002 62 212 0.0 2.0 0.00 0.00 0.00 61 1016.5
20260903080502 62 212 0.0 2.0 0.00 0.00 0.00 61 1016.6
20260903080006 62 215 0.0 2.0 0.00 0.00 0.00 61 1016.6
20260903075503 63 204 0.0 2.0 0.00 0.00 0.00 60 1016.6
20260903075003 63 215 0.0 2.0 0.00 0.00 0.00 60 1016.6
20260903074503 64 203 0.0 2.0 0.00 0.00 0.00 58 1016.5
20260903074003 64 215 0.0 2.0 0.00 0.00 0.00 57 1016.5
20260903073503 64 211 0.0 2.0 0.00 0.00 0.00 57 1016.5
20260903073004 65 211 0.0 2.0 0.00 0.00 0.00 55 1016.5
20260903072502 65 211 0.0 2.0 0.00 0.00 0.00 55 1016.4
20260903072003 65 211 0.0 2.0 0.00 0.00 0.00 56 1016.6
20260903071504 65 211 0.0 2.0 0.00 0.00 0.00 54 1016.7
20260903071005 65 211 0.0 2.0 0.00 0.00 0.00 54 1016.8
20260903070503 66 206 0.0 2.0 0.00 0.00 0.00 55 1016.8
20260903070001 66 205 0.0 2.0 0.00 0.00 0.00 54 1016.9
20260903065501 66 205 0.0 2.0 0.00 0.00 0.00 54 1016.9
20260903065003 66 202 0.0 2.0 0.00 0.00 0.00 52 1017.0
20260903064503 66 200 0.0 2.0 0.00 0.00 0.00 52 1016.9
20260903064003 66 200 0.0 2.0 0.00 0.00 0.00 52 1016.9
20260903063502 66 219 0.0 2.0 0.00 0.00 0.00 52 1017.0
20260903063004 66 234 0.0 2.0 0.00 0.00 0.00 54 1017.0
20260903062505 66 234 0.0 2.0 0.00 0.00 0.00 55 1017.1
20260903062005 66 162 0.0 2.0 0.00 0.00 0.00 56 1017.1
20260903061510 66 178 0.0 2.0 0.00 0.00 0.00 56 1017.1
20260903061007 65 220 0.0 2.0 0.00 0.00 0.00 56 1017.1
20260903060503 65 197 0.0 2.0 0.00 0.00 0.00 58 1017.1
20260903060003 65 163 0.0 2.0 0.00 0.00 0.00 1017.1
20260903055504 65 144 0.0 2.0 0.00 0.00 0.00 60 1017.1
20260903055002 65 144 0.0 2.0 0.00 0.00 0.00 60 1017.0
20260903054503 65 125 0.0 2.0 0.00 0.00 0.00 60 1017.1
20260903054002 65 136 0.0 2.0 0.00 0.00 0.00 60 1016.9
20260903053504 65 136 0.0 2.0 0.00 0.00 0.00 60 1017.0
20260903053005 65 127 0.0 2.0 0.00 0.00 0.00 59 1017.1
20260903052503 65 56 0.0 0.0 0.00 0.00 0.00 59 1017.0
20260903052002 66 54 0.0 2.0 0.00 0.00 0.00 58 1017.0
20260903051506 66 54 0.0 2.0 0.00 0.00 0.00 1016.9
20260903051002 66 55 0.0 2.0 0.00 0.00 0.00 1017.1
20260903050503 66 76 0.0 2.0 0.00 0.00 0.00 1017.1
20260903050019 66 76 0.0 2.0 0.00 0.00 0.00 59 1017.1
20260903045504 67 86 0.0 2.0 0.00 0.00 0.00 59 1017.2
20260903045003 67 28 0.0 2.0 0.00 0.00 0.00 58 1017.1
20260903044516 67 28 0.0 2.0 0.00 0.00 0.00 57 1016.9
20260903044003 67 11 0.0 2.0 0.00 0.00 0.00 57 1017.0
20260903043503 67 61 0.0 2.0 0.00 0.00 0.00 58 1017.2
20260903043003 67 75 0.0 2.0 0.00 0.00 0.00 56 1017.2
20260903042502 67 175 0.0 2.0 0.00 0.00 0.00 56 1017.2
20260903042007 67 192 0.0 2.0 0.00 0.00 0.00 56 1017.3
20260903041510 67 176 0.0 2.0 0.00 0.00 0.00 1017.5
20260903041003 67 157 0.0 2.0 0.00 0.00 0.00 55 1017.6
20260903040502 68 168 0.0 2.0 0.00 0.00 0.00 55 1017.4
20260903040008 68 190 0.0 2.0 0.00 0.00 0.00 55 1017.2
20260903035503 68 181 0.0 2.0 0.00 0.00 0.00 54 1017.1
20260903035002 68 184 0.0 2.0 0.00 0.00 0.00 54 1017.1
20260903034506 69 184 1.0 2.0 0.00 0.00 0.00 53 1017.0
20260903034004 69 105 0.0 2.0 0.00 0.00 0.00 52 1017.0
20260903033507 70 73 0.0 2.0 0.00 0.00 0.00 52 1016.9
20260903033003 70 71 0.0 2.0 0.00 0.00 0.00 51 1016.8
20260903032504 71 113 0.0 2.0 0.00 0.00 0.00 50 1017.1
20260903032004 71 136 0.0 2.0 0.00 0.00 0.00 49 1017.2
20260903031506 71 217 0.0 3.0 0.00 0.00 0.00 48 1017.3
20260903031003 72 190 0.0 3.0 0.00 0.00 0.00 47 1017.3
20260903030506 72 159 0.0 2.0 0.00 0.00 0.00 47 1017.2
20260903030004 72 243 0.0 2.0 0.00 0.00 0.00 46 1017.1
20260903025503 73 243 0.0 2.0 0.00 0.00 0.00 46 1017.0
20260903025003 73 244 0.0 2.0 0.00 0.00 0.00 45 1016.9
20260903024504 73 229 0.0 4.0 0.00 0.00 0.00 45 1016.8
20260903024004 73 351 1.0 4.0 0.00 0.00 0.00 44 1016.8
20260903023503 74 13 1.0 3.0 0.00 0.00 0.00 45 1016.6
20260903023008 74 13 1.0 5.0 0.00 0.00 0.00 45 1016.6
20260903022504 74 40 2.0 5.0 0.00 0.00 0.00 44 1016.7
20260903022003 74 57 0.0 2.0 0.00 0.00 0.00 43 1016.8
20260903021505 75 210 0.0 2.0 0.00 0.00 0.00 42 1016.8
20260903021004 75 196 0.0 3.0 0.00 0.00 0.00 42 1016.5
20260903020506 76 34 1.0 3.0 0.00 0.00 0.00 40 1016.1
20260903020006 76 326 1.0 3.0 0.00 0.00 0.00 40 1015.9
20260903015506 76 19 0.0 1.0 0.00 0.00 0.00 40 1015.8
20260903015005 76 19 0.0 2.0 0.00 0.00 0.00 41 1015.9
20260903014507 76 19 0.0 2.0 0.00 0.00 0.00 40 1015.9
20260903014003 76 19 0.0 2.0 0.00 0.00 0.00 40 1015.9
20260903013503 76 18 0.0 2.0 0.00 0.00 0.00 39 1015.8
20260903013007 77 25 0.0 2.0 0.00 0.00 0.00 40 1015.6
20260903012504 77 25 0.0 2.0 0.00 0.00 0.00 39 1015.6
20260903012004 77 28 0.0 3.0 0.00 0.00 0.00 38 1015.6
20260903011507 77 55 1.0 3.0 0.00 0.00 0.00 38 1015.6
20260903011003 78 22 0.0 2.0 0.00 0.00 0.00 38 1015.6
20260903010505 79 18 0.0 2.0 0.00 0.00 0.00 39 1015.6
20260903010008 79 347 0.0 2.0 0.00 0.00 0.00 38 1015.4
20260903005504 80 342 0.0 2.0 0.00 0.00 0.00 36 1015.3
20260903005008 80 340 0.0 2.0 0.00 0.00 0.00 33 1015.4
20260903004507 81 338 0.0 2.0 0.00 0.00 0.00 32 1015.4
20260903004011 81 338 0.0 2.0 0.00 0.00 0.00 33 1015.4
20260903003504 81 319 0.0 2.0 0.00 0.00 0.00 32 1015.6
20260903003008 81 315 0.0 2.0 0.00 0.00 0.00 33 1015.6
20260903002507 82 315 0.0 2.0 0.00 0.00 0.00 32 1015.6
20260903002004 82 343 0.0 2.0 0.00 0.00 0.00 31 1015.6
20260903001508 82 283 0.0 2.0 0.00 0.00 0.00 30 1015.6
20260903001004 83 246 0.0 3.0 0.00 0.00 0.00 30 1015.4
20260903000507 83 272 1.0 6.0 0.00 0.00 0.00 29 1015.3
20260903000018 84 360 1.0 6.0 0.00 0.00 0.00 29 1015.2
20260902235507 84 254 1.0 4.0 0.00 0.00 0.00 29 1015.3
20260902235007 84 254 1.0 8.0 0.00 0.00 0.00 29 1015.3
20260902234514 84 265 3.0 8.0 0.00 0.00 0.00 28 1015.4
20260902234008 84 272 1.0 5.0 0.00 0.00 0.00 28 1015.4
20260902233507 84 292 1.0 9.0 0.00 0.00 0.00 29 1015.4
20260902233008 84 274 2.0 10.0 0.00 0.00 0.00 29 1015.5
20260902232507 84 207 2.0 10.0 0.00 0.00 0.00 28 1015.6
20260902232007 83 284 3.0 8.0 0.00 0.00 0.00 28 1015.8
20260902231521 83 317 2.0 5.0 0.00 0.00 0.00 27 1015.9
20260902231004 84 30 3.0 10.0 0.00 0.00 0.00 26 1015.9
20260902230506 84 180 3.0 10.0 0.00 0.00 0.00 25 1016.0
20260902230011 84 236 3.0 13.0 0.00 0.00 0.00 25 1016.0
20260902225508 84 241 2.0 16.0 0.00 0.00 0.00 24 1015.9
20260902225007 85 161 7.0 14.0 0.00 0.00 0.00 24 1015.9
20260902224510 87 247 7.0 11.0 0.00 0.00 0.00 24 1015.7
20260902224008 87 124 0.0 2.0 0.00 0.00 0.00 24 1015.5
20260902223509 88 110 0.0 2.0 0.00 0.00 0.00 24 1015.3
20260902223013 88 111 0.0 2.0 0.00 0.00 0.00 23 1015.1
20260902222509 88 212 0.0 2.0 0.00 0.00 0.00 22 1015.0
20260902222012 89 138 0.0 3.0 0.00 0.00 0.00 22 1015.0
20260902221516 89 156 0.0 3.0 0.00 0.00 0.00 21 1014.9
20260902221007 90 146 1.0 3.0 0.00 0.00 0.00 21 1014.9
20260902220508 91 171 0.0 5.0 0.00 0.00 0.00 21 1014.8
20260902220015 90 122 1.0 5.0 0.00 0.00 0.00 20 1015.0
20260902215508 90 139 1.0 6.0 0.00 0.00 0.00 22 1015.0
20260902215005 89 150 1.0 6.0 0.00 0.00 0.00 23 1015.0
20260902214510 88 352 2.0 6.0 0.00 0.00 0.00 22 1015.0
20260902214007 88 42 2.0 4.0 0.00 0.00 0.00 22 1015.1
20260902213507 88 157 1.0 7.0 0.00 0.00 0.00 22 1015.2
20260902213015 88 168 2.0 7.0 0.00 0.00 0.00 22 1015.2
20260902212506 89 136 2.0 7.0 0.00 0.00 0.00 23 1015.3
20260902212003 88 103 2.0 8.0 0.00 0.00 0.00 22 1015.3
20260902211511 88 92 3.0 8.0 0.00 0.00 0.00 24 1015.4
20260902211010 88 65 1.0 6.0 0.00 0.00 0.00 24 1015.4
20260902210507 88 141 1.0 3.0 0.00 0.00 0.00 23 1015.5
20260902210015 88 101 1.0 3.0 0.00 0.00 0.00 23 1015.7
20260902205508 88 48 0.0 3.0 0.00 0.00 0.00 22 1015.7
20260902205008 88 23 1.0 3.0 0.00 0.00 0.00 22 1016.0
20260902204512 88 87 1.0 7.0 0.00 0.00 0.00 22 1016.1
20260902204005 89 131 1.0 7.0 0.00 0.00 0.00 21 1016.3
20260902203506 89 153 1.0 7.0 0.00 0.00 0.00 21 1016.4
20260902203014 90 142 3.0 7.0 0.00 0.00 0.00 21 1016.4
20260902202508 90 209 1.0 4.0 0.00 0.00 0.00 21 1016.5
20260902202010 90 84 1.0 4.0 0.00 0.00 0.00 21 1016.6
20260902201514 90 101 0.0 4.0 0.00 0.00 0.00 22 1016.6
20260902201011 90 139 1.0 9.0 0.00 0.00 0.00 22 1016.8
20260902200510 90 61 2.0 9.0 0.00 0.00 0.00 22 1016.7
20260902200007 89 157 1.0 7.0 0.00 0.00 0.00 23 1016.8
20260902195507 89 181 2.0 7.0 0.00 0.00 0.00 22 1016.9
20260902195012 89 125 2.0 9.0 0.00 0.00 0.00 22 1017.0
20260902194513 88 159 1.0 9.0 0.00 0.00 0.00 23 1017.0
20260902194011 89 145 3.0 9.0 0.00 0.00 0.00 23 1017.1
20260902193510 89 74 2.0 7.0 0.00 0.00 0.00 23 1017.1